KD5NVR-1 Weather Reports


time (UTC)temp
C
wind
direction
speed
KPH
gust
KPH
rain 1hr
cm
rain 24hr
cm
rain mn
cm
humidity
%
barometer
mb
20260506103016 12 48 11.3 16.1 0.00 1.22 1.19 86 1011.8
20260506102018 12 47 11.3 16.1 0.00 1.22 1.19 86 1011.4
20260506101018 13 47 11.3 14.5 0.00 1.22 1.19 86 1011.3
20260506100016 13 47 11.3 16.1 0.00 1.22 1.19 87 1011.2
20260506095017 13 47 11.3 16.1 0.00 1.22 1.19 86 1011.1
20260506094018 13 48 11.3 14.5 0.00 1.22 1.19 87 1011.1
20260506093038 13 47 9.7 12.9 0.00 1.22 1.19 87 1011.2
20260506092018 13 48 9.7 14.5 0.00 1.22 1.19 87 1011.1
20260506091018 13 48 9.7 14.5 0.00 1.22 1.19 87 1010.8
20260506090018 13 47 9.7 14.5 0.00 1.22 1.19 87 1010.6
20260506085019 13 46 9.7 12.9 0.00 1.22 1.19 86 1010.7
20260506084038 14 22 19.3 27.4 0.00 1.22 1.19 84 1010.6
20260506083038 14 17 20.9 29.0 0.00 1.22 1.19 85 1010.7
20260506082018 14 37 9.7 19.3 0.05 1.22 1.19 85 1010.7
20260506081018 15 42 12.9 24.1 0.25 1.22 1.19 84 1010.6
20260506073016 16 319 22.5 67.6 1.19 1.22 1.19 83 1010.6
20260506072016 16 310 11.3 19.3 1.14 1.17 1.14 83 1010.4
20260506071036 16 320 12.9 20.9 0.97 0.99 0.97 83 1010.3
20260506062017 17 52 8.0 19.3 0.00 0.03 0.00 76 1009.9
20260506061017 17 49 11.3 19.3 0.00 0.03 0.00 75 1009.8
20260506051018 18 47 9.7 22.5 0.00 0.03 0.00 70 1009.7
20260506045018 19 46 9.7 19.3 0.00 0.03 0.03 69 1009.8
20260506044018 19 53 9.7 17.7 0.00 0.03 0.03 69 1009.8
20260506043018 20 52 9.7 17.7 0.00 0.03 0.03 70 1009.9
20260506042019 20 35 9.7 19.3 0.00 0.03 0.03 71 1009.8
20260506041056 20 35 6.4 14.5 0.00 0.03 0.03 70 1009.5
20260506040036 20 50 8.0 16.1 0.00 0.03 0.03 69 1009.2
20260506035036 21 44 9.7 19.3 0.00 0.03 0.03 69 1009.2
20260506034016 21 27 11.3 19.3 0.00 0.03 0.03 68 1009.3
20260506033016 21 29 9.7 16.1 0.00 0.03 0.03 68 1009.1
20260506032016 21 31 9.7 19.3 0.00 0.03 0.03 67 1009.2
20260506031017 21 26 9.7 19.3 0.00 0.03 0.03 67 1009.0
20260506030017 22 22 9.7 17.7 0.00 0.03 0.03 67 1008.9
20260506025017 22 33 8.0 14.5 0.00 0.03 0.03 66 1008.7
20260506024017 22 23 9.7 16.1 0.00 0.03 0.03 68 1008.3
20260506023017 23 23 12.9 22.5 0.00 0.03 0.03 68 1008.0
20260506022017 23 9 17.7 22.5 0.03 0.03 0.03 69 1007.6
20260506021017 23 4 17.7 25.7 0.03 0.03 0.03 68 1007.4
20260506020017 23 17 14.5 24.1 0.03 0.03 0.03 68 1007.2
20260506015018 24 21 14.5 24.1 0.03 0.03 0.03 67 1007.1
20260506014018 25 13 19.3 25.7 0.03 0.03 0.03 67 1006.8
20260506013018 25 356 24.1 30.6 0.03 0.03 0.03 65 1006.5
20260506012018 26 360 20.9 38.6 0.00 0.00 0.00 63 1006.1
20260506011018 27 319 4.8 19.3 0.00 0.00 0.00 54 1005.6
20260506010018 28 194 3.2 8.0 0.00 0.00 0.00 54 1005.4
20260506005019 28 169 4.8 8.0 0.00 0.00 0.00 54 1005.2
20260506004019 28 169 3.2 6.4 0.00 0.00 0.00 53 1005.3
20260506003018 29 166 3.2 8.0 0.00 0.00 0.00 52 1005.3
20260506002016 30 163 3.2 9.7 0.00 0.00 0.00 50 1005.2
20260506001016 30 170 3.2 8.0 0.00 0.00 0.00 48 1005.3
20260506000016 31 182 3.2 8.0 0.00 0.00 0.00 48 1005.3
20260505235016 31 186 4.8 9.7 0.00 0.00 0.00 45 1005.4
20260505234017 31 207 6.4 9.7 0.00 0.00 0.00 44 1005.3
20260505233017 31 221 3.2 8.0 0.00 0.00 0.00 44 1005.5
20260505232017 31 220 4.8 11.3 0.00 0.00 0.00 45 1005.6
20260505231037 31 217 4.8 9.7 0.00 0.00 0.00 45 1005.6
20260505230017 31 219 6.4 9.7 0.00 0.00 0.00 45 1005.5
20260505225017 31 220 6.4 12.9 0.00 0.00 0.00 45 1005.5
20260505224037 30 215 4.8 9.7 0.00 0.00 0.00 47 1005.5
20260505223038 31 238 4.8 11.3 0.00 0.00 0.00 49 1005.6
20260505222037 31 250 3.2 8.0 0.00 0.00 0.00 47 1005.6
20260505221018 30 249 4.8 6.4 0.00 0.00 0.00 48 1005.7
20260505220018 30 257 8.0 12.9 0.00 0.00 0.00 49 1005.8
20260505215018 30 275 6.4 11.3 0.00 0.00 0.00 46 1005.9
20260505214038 31 261 8.0 11.3 0.00 0.00 0.00 45 1005.9
20260505213018 30 235 4.8 11.3 0.00 0.00 0.00 48 1005.9
20260505212038 30 269 4.8 6.4 0.00 0.00 0.00 45 1005.9
20260505211016 30 268 6.4 11.3 0.00 0.00 0.00 50 1006.0
20260505210019 31 273 4.8 6.4 0.00 0.00 0.00 46 1006.1
20260505205016 31 274 3.2 4.8 0.00 0.00 0.00 43 1006.1
20260505204018 30 249 3.2 4.8 0.00 0.00 0.00 46 1006.2
20260505203016 30 277 4.8 8.0 0.00 0.00 0.00 51 1006.3
20260505202036 30 241 4.8 11.3 0.00 0.00 0.00 54 1006.4
20260505201016 30 245 6.4 12.9 0.00 0.00 0.00 56 1006.6
20260505200017 30 251 6.4 11.3 0.00 0.00 0.00 52 1006.7
20260505195037 30 229 6.4 9.7 0.00 0.00 0.00 54 1006.8
20260505194037 30 215 6.4 11.3 0.00 0.00 0.00 56 1006.8
20260505193017 30 227 4.8 9.7 0.00 0.00 0.00 59 1006.9
20260505192037 29 231 8.0 16.1 0.00 0.00 0.00 58 1007.0
20260505191017 29 225 6.4 14.5 0.00 0.00 0.00 60 1007.3
20260505190018 28 224 6.4 11.3 0.00 0.00 0.00 62 1007.3
20260505185017 28 247 6.4 9.7 0.00 0.00 0.00 62 1007.5
20260505184018 28 227 6.4 12.9 0.00 0.00 0.00 61 1007.5
20260505183018 28 227 6.4 12.9 0.00 0.00 0.00 62 1007.7
20260505182018 27 244 11.3 16.1 0.00 0.00 0.00 64 1007.8
20260505181038 27 231 8.0 14.5 0.00 0.00 0.00 65 1007.8
20260505180018 27 236 9.7 14.5 0.00 0.00 0.00 68 1008.0
20260505175018 27 231 8.0 12.9 0.00 0.00 0.00 69 1008.0
20260505174018 27 227 6.4 11.3 0.00 0.00 0.00 69 1008.1
20260505173019 26 220 8.0 14.5 0.00 0.00 0.00 70 1008.2
20260505172036 26 213 6.4 20.9 0.00 0.00 0.00 71 1008.2
20260505171016 26 233 9.7 16.1 0.00 0.00 0.00 72 1008.2
20260505170016 26 213 9.7 19.3 0.00 0.00 0.00 72 1008.1
20260505165016 26 227 8.0 14.5 0.00 0.00 0.00 73 1008.3
20260505164016 25 215 9.7 16.1 0.00 0.00 0.00 73 1008.3
20260505163017 25 219 8.0 16.1 0.00 0.00 0.00 73 1008.1
20260505162036 25 205 11.3 19.3 0.00 0.00 0.00 74 1007.9
20260505161017 25 208 9.7 19.3 0.00 0.00 0.00 76 1007.9
20260505153037 23 211 9.7 22.5 0.00 0.00 0.00 80 1007.9
20260505152018 23 210 9.7 19.3 0.00 0.00 0.00 80 1008.0
20260505151038 23 204 9.7 17.7 0.00 0.00 0.00 81 1008.0
20260505125023 18 161 3.2 4.8 0.00 0.00 0.00 94 1007.5
20260505124023 18 128 3.2 4.8 0.00 0.00 0.00 94 1007.4
20260505123023 17 122 4.8 6.4 0.00 0.00 0.00 94 1007.2
20260505122023 17 167 3.2 6.4 0.00 0.00 0.00 95 1007.1
20260505121023 17 122 3.2 8.0 0.00 0.00 0.00 96 1007.0
20260505120023 17 107 3.2 6.4 0.00 0.00 0.00 96 1007.0
20260505115023 17 83 3.2 4.8 0.00 0.00 0.00 95 1006.9
20260505114023 17 87 3.2 6.4 0.00 0.00 0.00 95 1006.8
20260505113024 17 107 3.2 3.2 0.00 0.00 0.00 95 1006.6
20260505112044 17 114 3.2 6.4 0.00 0.00 0.00 94 1006.6
20260505111024 17 107 3.2 4.8 0.00 0.00 0.00 93 1006.8